Location: ????????
(38.4362°N, 22.8767°E)
Time: 05:00:04
(UTC+00:00)

FENGYUN 1C DEB - Pass Details

Date: 22 October 2025
Orbit: 841 x 1273 km, 99.2° (Epoch: 16 November)

Event Time Altitude Azimuth Distance (km) Brightness Sun altitude
Rises 03:50:59 0° 5° (N) 3,414 ? -11.2°
Reaches altitude 10° 03:53:25 10° 358° (N) 2,492 ? -10.7°
Maximum altitude 03:58:28 40° 291° (WNW) 1,289 ? -9.7°
Drops below altitude 10° 04:03:50 10° 223° (SW) 2,642 ? -8.7°
Sets 04:06:30 0° 216° (SW) 3,643 ? -8.1°
